{"data":{"norad_id":62258,"epoch":"2026-09-20T07:37:38.008992Z","epoch_age_seconds":325544,"freshness":"STALE","line1":"1 62258U 24233C   26263.31780103 -.00000025  00000+0  00000+0 0  9995","line2":"2 62258  59.8007  89.5587 7995376 208.1894  62.3311  1.22078031  7977","mean_motion":1.22078031,"eccentricity":0.7995376,"inclination_deg":59.8007,"raan_deg":89.5587,"arg_perigee_deg":208.1894,"mean_anomaly_deg":62.3311,"bstar":0,"rev_number":797,"period_min":1179.5734156295,"perigee_km":1035.1319476632,"apogee_km":60170.284101575,"semimajor_km":36980.845024619,"source":"CELESTRAK","updated_at":"2026-09-23T09:00:21.338291Z"}}